Location: Unspecified
(0.0000°N, 0.0000°E)
Time: 10:48:44
(UTC+00:00)

N. Korean satellite - Pass Details

Date: 24 March 2017
Orbit: 460 x 518 km, 97.2° (Epoch: 28 June)

Event Time Altitude Azimuth Distance (km) Brightness Sun altitude
Rises 18:32:40 0° 163° (SSE) 2,618 10.1 -6.6°
Reaches altitude 10° 18:34:48 10° 159° (SSE) 1,722 9.1 -7.2°
Maximum altitude 18:38:27 59° 79° (E) 581 6.6 -8.1°
Drops below altitude 10° 18:42:02 10° 359° (N) 1,682 9.3 -9.0°
Sets 18:44:05 0° 356° (N) 2,550 10.3 -9.5°
